This is the latest recevied weather packets stored in our database for station/object K7SKM. If no packets are shown the sender has not sent any weather packets the latest 10 day(s).
| Time | Temp. | Humidity | Pressure | Rain* | Wind** | Luminosity | Snow |
|---|---|---|---|---|---|---|---|
| 1787671860 | 16.11° C | 81% | 1019.7 hPa | 0 mm | - | 58 W/m² | - |
| 1787671555 | 15.56° C | 81% | 1019.8 hPa | 0 mm | - | 57 W/m² | - |
| 1787671250 | 15.56° C | 82% | 1019.7 hPa | 0 mm | - | 56 W/m² | - |
| 1787670945 | 15.56° C | 83% | 1019.9 hPa | 0 mm | - | 55 W/m² | - |
| 1787670641 | 15° C | 83% | 1019.8 hPa | 0 mm | - | 51 W/m² | - |
| 1787670340 | 15° C | 83% | 1020 hPa | 0 mm | - | 48 W/m² | - |
| 1787670035 | 15° C | 84% | 1019.8 hPa | 0 mm | - | 45 W/m² | - |
| 1787669730 | 15° C | 84% | 1019.6 hPa | 0 mm | - | 44 W/m² | - |
| 1787669425 | 14.44° C | 85% | 1019.5 hPa | 0 mm | - | 42 W/m² | - |
| 1787669121 | 14.44° C | 85% | 1019.6 hPa | 0 mm | - | 39 W/m² | - |
| 1787668816 | 14.44° C | 86% | 1019.5 hPa | 0 mm | - | 36 W/m² | - |
| 1787668513 | 14.44° C | 86% | 1019.4 hPa | 0 mm | - | 33 W/m² | - |
| 1787668208 | 13.89° C | 87% | 1019.4 hPa | 0 mm | - | 33 W/m² | - |
| 1787667903 | 13.89° C | 87% | 1019.2 hPa | 0 mm | - | 33 W/m² | - |
| 1787667597 | 13.89° C | 88% | 1019.4 hPa | 0 mm | - | 27 W/m² | - |
| 1787667294 | 13.89° C | 88% | 1019.3 hPa | 0 mm | - | 25 W/m² | - |
| 1787666993 | 13.89° C | 88% | 1019.2 hPa | 0 mm | - | 22 W/m² | - |
| 1787666689 | 13.89° C | 88% | 1019.1 hPa | 0 mm | - | 20 W/m² | - |
| 1787666388 | 13.89° C | 88% | 1019.1 hPa | 0 mm | - | 17 W/m² | - |
| 1787666084 | 13.33° C | 88% | 1019.1 hPa | 0 mm | - | 12 W/m² | - |
| 1787665779 | 13.33° C | 88% | 1019.2 hPa | 0 mm | - | 10 W/m² | - |
| 1787665479 | 13.33° C | 88% | 1019 hPa | 0 mm | - | 7 W/m² | - |
| 1787665173 | 13.33° C | 88% | 1019.1 hPa | 0 mm | - | 5 W/m² | - |
| 1787664871 | 13.33° C | 88% | 1019 hPa | 0 mm | - | 3 W/m² | - |
| 1787664566 | 13.33° C | 88% | 1018.9 hPa | 0 mm | - | 1 W/m² | - |
* Rain latest hour (hover to see other rain measurements)
** Current wind speed in m/s (hover to see current wind gust speed)